| time (UTC) | temp F | wind direction | speed MPH | gust MPH | rain 1hr in | rain 24hr in | rain mn in | humidity % | barometer mb |
| 20260503040055 | 48 | 292 | 0.0 | 4.0 | 0.00 | 0.02 | 0.00 | 98 | 1010.4 |
| 20260503034544 | 48 | 0 | 0.0 | 3.0 | 0.00 | 0.02 | 0.02 | 97 | 1010.7 |
| 20260503033038 | 48 | 226 | 0.0 | 3.0 | 0.00 | 0.02 | 0.02 | 98 | 1010.6 |
| 20260503031537 | 48 | 225 | 0.0 | 3.0 | 0.00 | 0.02 | 0.02 | 98 | 1010.4 |
| 20260503030037 | 48 | 0 | 0.0 | 0.0 | 0.00 | 0.02 | 0.02 | 97 | 1010.4 |
| 20260503024538 | 48 | 0 | 0.0 | 2.0 | 0.00 | 0.02 | 0.02 | 97 | 1010.4 |
| 20260503023052 | 48 | 0 | 0.0 | 1.0 | 0.00 | 0.02 | 0.02 | 97 | 1010.6 |
| 20260503021550 | 48 | 173 | 0.0 | 2.0 | 0.00 | 0.02 | 0.02 | 97 | 1010.7 |
| 20260503020047 | 48 | 165 | 0.0 | 2.0 | 0.00 | 0.02 | 0.02 | 97 | 1010.8 |
| 20260503014537 | 48 | 166 | 0.0 | 3.0 | 0.01 | 0.02 | 0.02 | 97 | 1010.9 |
| 20260503013037 | 48 | 144 | 0.0 | 1.0 | 0.01 | 0.02 | 0.02 | 96 | 1011.1 |
| 20260503011546 | 48 | 0 | 0.0 | 5.0 | 0.01 | 0.02 | 0.02 | 96 | 1011.0 |
| 20260503010036 | 48 | 0 | 0.0 | 4.0 | 0.01 | 0.02 | 0.02 | 96 | 1010.9 |
| 20260503004610 | 49 | 143 | 1.0 | 6.0 | 0.01 | 0.01 | 0.01 | 96 | 1010.6 |
| 20260503003056 | 49 | 178 | 0.0 | 4.0 | 0.01 | 0.01 | 0.01 | 95 | 1010.8 |
| 20260503001542 | 49 | 0 | 0.0 | 2.0 | 0.01 | 0.01 | 0.01 | 95 | 1010.9 |
| 20260503000040 | 49 | 0 | 0.0 | 0.0 | 0.01 | 0.01 | 0.01 | 95 | 1010.9 |
| 20260502234544 | 49 | 0 | 0.0 | 0.0 | 0.00 | 0.00 | 0.00 | 95 | 1010.8 |
| 20260502233044 | 49 | 0 | 0.0 | 2.0 | 0.00 | 0.00 | 0.00 | 94 | 1010.8 |
| 20260502231540 | 49 | 0 | 0.0 | 2.0 | 0.00 | 0.00 | 0.00 | 94 | 1010.8 |
| 20260502230039 | 49 | 0 | 0.0 | 2.0 | 0.00 | 0.00 | 0.00 | 93 | 1010.7 |
| 20260502224543 | 49 | 0 | 0.0 | 2.0 | 0.00 | 0.00 | 0.00 | 93 | 1010.9 |
| 20260502223047 | 49 | 154 | 0.0 | 4.0 | 0.00 | 0.00 | 0.00 | 93 | 1010.8 |
| 20260502221543 | 50 | 143 | 2.0 | 7.0 | 0.00 | 0.00 | 0.00 | 93 | 1010.7 |
| 20260502220046 | 50 | 180 | 1.0 | 5.0 | 0.00 | 0.00 | 0.00 | 93 | 1010.6 |
| 20260502214539 | 50 | 153 | 2.0 | 6.0 | 0.00 | 0.00 | 0.00 | 93 | 1010.7 |
| 20260502213054 | 50 | 173 | 2.0 | 6.0 | 0.00 | 0.00 | 0.00 | 92 | 1010.7 |
| 20260502211538 | 50 | 0 | 1.0 | 5.0 | 0.00 | 0.00 | 0.00 | 93 | 1010.7 |
| 20260502210039 | 50 | 184 | 0.0 | 5.0 | 0.00 | 0.00 | 0.00 | 92 | 1010.8 |
| 20260502204539 | 50 | 178 | 2.0 | 8.0 | 0.00 | 0.00 | 0.00 | 91 | 1010.9 |
| 20260502203045 | 50 | 184 | 4.0 | 8.0 | 0.00 | 0.00 | 0.00 | 90 | 1010.9 |
| 20260502201541 | 50 | 142 | 2.0 | 6.0 | 0.00 | 0.00 | 0.00 | 89 | 1011.2 |
| 20260502194549 | 50 | 152 | 3.0 | 8.0 | 0.00 | 0.00 | 0.00 | 89 | 1011.3 |
| 20260502193037 | 50 | 190 | 4.0 | 13.0 | 0.00 | 0.00 | 0.00 | 89 | 1011.5 |
| 20260502191536 | 51 | 174 | 2.0 | 9.0 | 0.00 | 0.00 | 0.00 | 89 | 1011.7 |
| 20260502190046 | 51 | 165 | 4.0 | 9.0 | 0.00 | 0.00 | 0.00 | 88 | 1012.0 |
| 20260502184540 | 51 | 157 | 4.0 | 8.0 | 0.00 | 0.00 | 0.00 | 88 | 1012.0 |
| 20260502183045 | 52 | 159 | 3.0 | 9.0 | 0.00 | 0.00 | 0.00 | 88 | 1012.1 |
| 20260502181537 | 52 | 193 | 2.0 | 10.0 | 0.00 | 0.00 | 0.00 | 87 | 1012.0 |
| 20260502163052 | 52 | 126 | 2.0 | 13.0 | 0.00 | 0.00 | 0.00 | 84 | 1012.1 |
| 20260502161547 | 52 | 196 | 3.0 | 9.0 | 0.00 | 0.00 | 0.00 | 83 | 1012.3 |
| 20260502151537 | 52 | 202 | 3.0 | 9.0 | 0.00 | 0.00 | 0.00 | 83 | 1013.0 |
| 20260502123038 | 50 | 226 | 3.0 | 9.0 | 0.00 | 0.00 | 0.00 | 86 | 1013.2 |
| 20260502121537 | 50 | 221 | 3.0 | 9.0 | 0.00 | 0.00 | 0.00 | 87 | 1013.0 |
| 20260502114543 | 49 | 243 | 3.0 | 10.0 | 0.00 | 0.00 | 0.00 | 87 | 1013.0 |
| 20260502113054 | 49 | 186 | 4.0 | 12.0 | 0.00 | 0.00 | 0.00 | 87 | 1012.9 |
| 20260502111543 | 48 | 178 | 3.0 | 12.0 | 0.00 | 0.00 | 0.00 | 88 | 1012.7 |
| 20260502110037 | 48 | 188 | 4.0 | 8.0 | 0.00 | 0.00 | 0.00 | 88 | 1012.6 |
| 20260502104536 | 48 | 204 | 3.0 | 8.0 | 0.00 | 0.00 | 0.00 | 88 | 1012.8 |
| 20260502103059 | 48 | 184 | 2.0 | 7.0 | 0.00 | 0.00 | 0.00 | 88 | 1012.4 |
| 20260502101550 | 47 | 229 | 3.0 | 7.0 | 0.00 | 0.00 | 0.00 | 88 | 1012.3 |
| 20260502070040 | 47 | 223 | 1.0 | 4.0 | 0.00 | 0.00 | 0.00 | 79 | 1012.1 |
| 20260502064539 | 48 | 200 | 1.0 | 3.0 | 0.00 | 0.00 | 0.00 | 78 | 1012.1 |
| 20260502063045 | 48 | 206 | 1.0 | 6.0 | 0.00 | 0.00 | 0.00 | 78 | 1012.2 |
| 20260502061543 | 48 | 193 | 1.0 | 5.0 | 0.00 | 0.00 | 0.00 | 76 | 1012.5 |
| 20260502060039 | 48 | 223 | 2.0 | 7.0 | 0.00 | 0.00 | 0.00 | 77 | 1012.5 |
| 20260502054553 | 49 | 213 | 2.0 | 7.0 | 0.00 | 0.00 | 0.00 | 78 | 1012.5 |
| 20260502053046 | 49 | 226 | 2.0 | 6.0 | 0.00 | 0.00 | 0.00 | 78 | 1012.7 |
| 20260502051538 | 49 | 221 | 2.0 | 7.0 | 0.00 | 0.00 | 0.00 | 77 | 1012.8 |
| 20260502050038 | 49 | 212 | 2.0 | 7.0 | 0.00 | 0.00 | 0.00 | 76 | 1012.7 |
| 20260502044538 | 49 | 212 | 3.0 | 8.0 | 0.00 | 0.00 | 0.00 | 75 | 1012.8 |
| 20260502043038 | 49 | 189 | 1.0 | 8.0 | 0.00 | 0.00 | 0.00 | 76 | 1012.8 |
| 20260502041543 | 49 | 248 | 1.0 | 4.0 | 0.00 | 0.00 | 0.00 | 76 | 1012.7 |